Volver al catálogo

STARLINK-32682

ActivoComunicacionesVLEO
NORAD 62196·PAYLOAD·🇺🇸 United States

Lanzado Dec 4, 2024 desde Cape Canaveral Space Force Station

Loading…

Próximos Pases (próximas 24 horas)

TLE

ActualizadoSource: CelesTrak SupGP

Época: Sep 14, 2026, 21:41 UTC

1 62196C 24229E   26257.90395833  .00040345  00000+0  14616-2 0  2577
2 62196  43.0011 249.4610 0001507 263.9810  43.9639 15.27551675    12

Sigue STARLINK-32682 en tiempo real con AllMySat

Download on the App Store